TimeEDT,TemperatureF,Dew PointF,Humidity,Sea Level PressureIn,VisibilityMPH,Wind Direction,Wind SpeedMPH,Gust SpeedMPH,PrecipitationIn,Events,Conditions,WindDirDegrees,DateUTC
12:53 AM,64.0,48.9,58,30.11,10.0,SSW,3.5,-,N/A,,Clear,210,2013-04-09 04:53:00
1:53 AM,64.0,48.9,58,30.11,10.0,SSW,4.6,-,N/A,,Clear,200,2013-04-09 05:53:00
2:53 AM,62.1,50.0,65,30.10,10.0,Calm,Calm,-,N/A,,Clear,0,2013-04-09 06:53:00
3:53 AM,60.1,50.0,69,30.10,10.0,SW,3.5,-,N/A,,Clear,230,2013-04-09 07:53:00
4:53 AM,59.0,51.1,75,30.12,10.0,SW,3.5,-,N/A,,Clear,230,2013-04-09 08:53:00
5:53 AM,59.0,51.1,75,30.13,10.0,Calm,Calm,-,N/A,,Clear,0,2013-04-09 09:53:00
6:53 AM,55.9,51.1,84,30.15,10.0,Calm,Calm,-,N/A,,Clear,0,2013-04-09 10:53:00
7:53 AM,60.1,53.1,78,30.17,10.0,Calm,Calm,-,N/A,,Clear,0,2013-04-09 11:53:00
8:53 AM,62.1,53.1,72,30.19,10.0,SW,4.6,-,N/A,,Clear,230,2013-04-09 12:53:00
9:53 AM,66.0,54.0,65,30.20,10.0,WSW,4.6,-,N/A,,Clear,240,2013-04-09 13:53:00
10:53 AM,72.0,55.0,55,30.20,10.0,Calm,Calm,-,N/A,,Clear,0,2013-04-09 14:53:00
11:53 AM,75.9,55.0,48,30.20,10.0,Variable,3.5,-,N/A,,Clear,0,2013-04-09 15:53:00
12:53 PM,80.1,53.1,39,30.18,10.0,SSW,12.7,16.1,N/A,,Scattered Clouds,210,2013-04-09 16:53:00
1:53 PM,79.0,52.0,39,30.17,10.0,West,10.4,-,N/A,,Mostly Cloudy,260,2013-04-09 17:53:00
2:53 PM,82.9,52.0,34,30.15,10.0,WSW,10.4,-,N/A,,Mostly Cloudy,250,2013-04-09 18:53:00
3:53 PM,82.9,51.1,33,30.13,10.0,WSW,9.2,-,N/A,,Partly Cloudy,240,2013-04-09 19:53:00
4:53 PM,81.0,51.1,35,30.12,10.0,SSW,12.7,-,N/A,,Mostly Cloudy,200,2013-04-09 20:53:00
5:53 PM,82.0,52.0,35,30.12,10.0,WSW,9.2,-,N/A,,Clear,240,2013-04-09 21:53:00
6:53 PM,80.1,52.0,38,30.12,10.0,SSW,11.5,-,N/A,,Clear,210,2013-04-09 22:53:00
7:53 PM,75.9,53.1,45,30.12,10.0,SSW,6.9,-,N/A,,Clear,210,2013-04-09 23:53:00
8:53 PM,73.9,53.1,48,30.12,10.0,SSW,5.8,-,N/A,,Clear,200,2013-04-10 00:53:00
9:53 PM,73.0,54.0,51,30.12,10.0,SSW,3.5,-,N/A,,Clear,210,2013-04-10 01:53:00
10:53 PM,70.0,54.0,57,30.11,10.0,South,4.6,-,N/A,,Clear,180,2013-04-10 02:53:00
11:53 PM,70.0,54.0,57,30.11,10.0,SW,3.5,-,N/A,,Clear,220,2013-04-10 03:53:00